TimeEST,TemperatureF,Dew PointF,Humidity,Sea Level PressureIn,VisibilityMPH,Wind Direction,Wind SpeedMPH,Gust SpeedMPH,PrecipitationIn,Events,Conditions,WindDirDegrees,DateUTC
12:52 AM,63.0,48.9,60,29.94,10.0,ENE,10.4,-,N/A,,Clear,70,2012-11-06 05:52:00
1:52 AM,63.0,48.9,60,29.93,10.0,ENE,6.9,-,N/A,,Clear,70,2012-11-06 06:52:00
2:52 AM,62.1,48.9,62,29.91,10.0,NE,5.8,-,N/A,,Clear,50,2012-11-06 07:52:00
3:52 AM,63.0,48.9,60,29.91,10.0,ENE,5.8,-,N/A,,Mostly Cloudy,70,2012-11-06 08:52:00
4:52 AM,64.0,50.0,60,29.90,10.0,NE,4.6,-,N/A,,Overcast,50,2012-11-06 09:52:00
5:52 AM,63.0,54.0,72,29.91,10.0,WNW,5.8,-,N/A,,Overcast,290,2012-11-06 10:52:00
6:05 AM,62.6,53.6,72,29.94,10.0,WNW,6.9,-,0.00,Rain,Light Rain,300,2012-11-06 11:05:00
6:22 AM,60.8,53.6,77,29.94,4.0,Variable,5.8,-,0.00,Rain,Rain,0,2012-11-06 11:22:00
6:52 AM,59.0,54.0,83,29.96,5.0,NW,8.1,-,0.04,Rain,Light Rain,320,2012-11-06 11:52:00
7:52 AM,57.0,52.0,83,29.96,7.0,North,8.1,-,0.05,Rain,Light Rain,350,2012-11-06 12:52:00
8:52 AM,59.0,51.1,75,29.93,10.0,East,4.6,-,0.02,Rain,Light Rain,90,2012-11-06 13:52:00
9:17 AM,60.8,50.0,68,29.91,10.0,NE,6.9,-,0.00,,Overcast,50,2012-11-06 14:17:00
9:52 AM,64.0,51.1,63,29.91,10.0,ENE,8.1,-,0.00,,Mostly Cloudy,60,2012-11-06 14:52:00
10:52 AM,64.9,48.0,54,29.90,10.0,NE,3.5,-,N/A,,Mostly Cloudy,40,2012-11-06 15:52:00
11:06 AM,64.4,48.2,56,29.90,10.0,Calm,Calm,-,0.00,Rain,Light Rain,0,2012-11-06 16:06:00
11:52 AM,64.9,48.9,56,29.88,10.0,North,3.5,-,0.03,,Mostly Cloudy,10,2012-11-06 16:52:00
12:52 PM,68.0,50.0,52,29.86,10.0,NE,5.8,-,N/A,,Mostly Cloudy,50,2012-11-06 17:52:00
1:52 PM,66.0,50.0,56,29.83,10.0,NNE,4.6,-,N/A,,Mostly Cloudy,30,2012-11-06 18:52:00
2:52 PM,66.0,48.9,54,29.83,10.0,ENE,3.5,-,N/A,,Scattered Clouds,60,2012-11-06 19:52:00
3:52 PM,68.0,50.0,52,29.83,10.0,NE,9.2,-,N/A,,Scattered Clouds,40,2012-11-06 20:52:00
4:52 PM,66.0,50.0,56,29.83,10.0,NNE,8.1,-,N/A,,Scattered Clouds,30,2012-11-06 21:52:00
5:52 PM,63.0,51.1,65,29.84,10.0,NNE,6.9,-,N/A,,Partly Cloudy,30,2012-11-06 22:52:00
6:52 PM,64.0,53.1,67,29.86,10.0,NNE,9.2,-,N/A,,Partly Cloudy,30,2012-11-06 23:52:00
7:52 PM,64.0,53.1,67,29.87,10.0,NNE,11.5,-,N/A,,Mostly Cloudy,30,2012-11-07 00:52:00
8:11 PM,62.6,53.6,72,29.89,9.0,Variable,5.8,-,0.00,Rain,Light Rain,0,2012-11-07 01:11:00
8:36 PM,60.8,53.6,77,29.89,10.0,North,11.5,-,0.00,,Mostly Cloudy,360,2012-11-07 01:36:00
8:52 PM,61.0,52.0,72,29.88,10.0,North,11.5,19.6,0.00,,Scattered Clouds,10,2012-11-07 01:52:00
9:52 PM,61.0,51.1,70,29.88,10.0,NNE,9.2,-,N/A,,Mostly Cloudy,20,2012-11-07 02:52:00
10:52 PM,60.1,50.0,69,29.88,10.0,North,10.4,18.4,N/A,,Mostly Cloudy,360,2012-11-07 03:52:00
11:52 PM,57.0,48.0,72,29.88,10.0,North,8.1,-,N/A,,Mostly Cloudy,350,2012-11-07 04:52:00